Year,Month,Day,Hour,Minute,Value (Times are PST for windgust in km/hr)
2015,08,29,00,17,1.60
2015,08,29,00,58,4.80
2015,08,29,01,06,9.60
2015,08,29,01,17,1.60
2015,08,29,01,23,9.60
2015,08,29,01,24,8.10
2015,08,29,01,25,3.20
2015,08,29,01,26,9.60
2015,08,29,01,30,8.10
2015,08,29,01,31,8.10
2015,08,29,01,32,8.10
2015,08,29,01,33,1.60
2015,08,29,01,34,8.10
2015,08,29,01,35,8.10
2015,08,29,01,36,1.60
2015,08,29,01,37,17.70
2015,08,29,01,38,14.50
2015,08,29,01,39,4.80
2015,08,29,01,41,1.60
2015,08,29,01,42,4.80
2015,08,29,02,31,1.60
2015,08,29,02,32,6.40
2015,08,29,02,33,11.30
2015,08,29,02,34,8.10
2015,08,29,02,35,17.70
2015,08,29,02,36,16.10
2015,08,29,02,37,11.30
2015,08,29,02,38,4.80
2015,08,29,02,42,6.40
2015,08,29,02,43,6.40
2015,08,29,02,44,9.60
2015,08,29,02,48,6.40
2015,08,29,02,49,9.60
2015,08,29,02,51,1.60
2015,08,29,02,53,4.80
2015,08,29,02,54,4.80
2015,08,29,02,56,9.60
2015,08,29,02,57,3.20
2015,08,29,02,58,3.20
2015,08,29,02,59,4.80
2015,08,29,03,00,8.10
2015,08,29,03,01,9.60
2015,08,29,03,02,4.80
2015,08,29,03,03,4.80
2015,08,29,03,04,11.30
2015,08,29,03,05,8.10
2015,08,29,03,10,1.60
2015,08,29,03,11,9.60
2015,08,29,03,14,3.20
2015,08,29,03,19,9.60
2015,08,29,03,20,9.60
2015,08,29,03,21,4.80
2015,08,29,03,24,11.30
2015,08,29,03,25,3.20
2015,08,29,03,26,6.40
2015,08,29,03,44,4.80
2015,08,29,03,45,4.80
2015,08,29,04,08,1.60
2015,08,29,04,15,6.40
2015,08,29,04,17,8.10
2015,08,29,04,22,4.80
2015,08,29,04,26,11.30
2015,08,29,04,32,1.60
2015,08,29,04,33,4.80
2015,08,29,04,36,9.60
2015,08,29,04,37,8.10
2015,08,29,04,38,6.40
2015,08,29,04,39,14.50
2015,08,29,04,40,4.80
2015,08,29,04,41,9.60
2015,08,29,04,43,8.10
2015,08,29,04,44,1.60
2015,08,29,04,46,9.60
2015,08,29,04,47,11.30
2015,08,29,04,48,3.20
2015,08,29,04,49,6.40
2015,08,29,05,00,4.80
2015,08,29,05,02,1.60
2015,08,29,05,03,6.40
2015,08,29,05,04,4.80
2015,08,29,05,05,3.20
2015,08,29,05,07,1.60
2015,08,29,05,08,4.80
2015,08,29,05,10,6.40
2015,08,29,05,14,6.40
2015,08,29,05,15,6.40
2015,08,29,05,17,11.30
2015,08,29,05,18,6.40
2015,08,29,05,19,4.80
2015,08,29,05,20,3.20
2015,08,29,05,30,8.10
2015,08,29,05,47,11.30
2015,08,29,05,48,16.10
2015,08,29,05,49,19.30
2015,08,29,05,50,19.30
2015,08,29,05,51,17.70
2015,08,29,05,52,20.90
2015,08,29,05,53,17.70
2015,08,29,05,54,19.30
2015,08,29,05,55,12.90
2015,08,29,05,56,11.30
2015,08,29,05,57,16.10
2015,08,29,05,58,12.90
2015,08,29,05,59,19.30
2015,08,29,06,00,19.30
2015,08,29,06,01,19.30
2015,08,29,06,02,14.50
2015,08,29,06,03,14.50
2015,08,29,06,04,14.50
2015,08,29,06,05,9.60
2015,08,29,06,31,1.60
2015,08,29,06,38,8.10
2015,08,29,06,39,6.40
2015,08,29,06,40,11.30
2015,08,29,06,41,11.30
2015,08,29,06,42,8.10
2015,08,29,06,43,11.30
2015,08,29,06,44,11.30
2015,08,29,06,45,8.10
2015,08,29,06,46,8.10
2015,08,29,06,47,9.60
2015,08,29,06,48,20.90
2015,08,29,06,49,19.30
2015,08,29,06,50,16.10
2015,08,29,06,51,17.70
2015,08,29,06,52,8.10
2015,08,29,06,53,14.50
2015,08,29,06,54,6.40
2015,08,29,06,55,14.50
2015,08,29,06,56,16.10
2015,08,29,06,57,9.60
2015,08,29,06,58,19.30
2015,08,29,06,59,17.70
2015,08,29,07,00,17.70
2015,08,29,07,01,6.40
2015,08,29,07,02,12.90
2015,08,29,07,03,16.10
2015,08,29,07,04,22.50
2015,08,29,07,05,19.30
2015,08,29,07,06,17.70
2015,08,29,07,07,20.90
2015,08,29,07,08,19.30
2015,08,29,07,09,16.10
2015,08,29,07,10,22.50
2015,08,29,07,11,22.50
2015,08,29,07,12,24.20
2015,08,29,07,13,16.10
2015,08,29,07,14,17.70
2015,08,29,07,15,24.20
2015,08,29,07,16,19.30
2015,08,29,07,17,16.10
2015,08,29,07,18,16.10
2015,08,29,07,19,20.90
2015,08,29,07,20,16.10
2015,08,29,07,21,17.70
2015,08,29,07,22,22.50
2015,08,29,07,23,11.30
2015,08,29,07,24,16.10
2015,08,29,07,25,20.90
2015,08,29,07,26,22.50
2015,08,29,07,27,16.10
2015,08,29,07,28,9.60
2015,08,29,07,29,12.90
2015,08,29,07,30,9.60
2015,08,29,07,31,14.50
2015,08,29,07,32,19.30
2015,08,29,07,33,6.40
2015,08,29,07,34,9.60
2015,08,29,07,35,11.30
2015,08,29,07,36,11.30
2015,08,29,07,37,8.10
2015,08,29,07,38,16.10
2015,08,29,07,39,8.10
2015,08,29,07,41,11.30
2015,08,29,07,42,3.20
2015,08,29,08,13,9.60
2015,08,29,08,14,6.40
2015,08,29,08,27,9.60
2015,08,29,08,28,25.70
2015,08,29,08,29,22.50
2015,08,29,08,30,16.10
2015,08,29,08,31,3.20
2015,08,29,08,34,4.80
2015,08,29,08,38,9.60
2015,08,29,08,39,3.20
2015,08,29,08,40,8.10
2015,08,29,08,41,3.20
2015,08,29,08,42,9.60
2015,08,29,08,43,20.90
2015,08,29,08,44,4.80
2015,08,29,08,45,11.30
2015,08,29,08,46,3.20
2015,08,29,08,47,17.70
2015,08,29,08,48,14.50
2015,08,29,08,49,12.90
2015,08,29,08,50,14.50
2015,08,29,08,51,4.80
2015,08,29,08,52,11.30
2015,08,29,08,53,3.20
2015,08,29,08,54,3.20
2015,08,29,08,55,9.60
2015,08,29,08,56,6.40
2015,08,29,08,57,11.30
2015,08,29,08,58,8.10
2015,08,29,09,02,11.30
2015,08,29,09,03,16.10
2015,08,29,09,04,16.10
2015,08,29,09,05,9.60
2015,08,29,09,06,6.40
2015,08,29,09,07,11.30
2015,08,29,09,08,22.50
2015,08,29,09,09,11.30
2015,08,29,09,10,9.60
2015,08,29,09,11,11.30
2015,08,29,09,12,14.50
2015,08,29,09,13,9.60
2015,08,29,09,14,6.40
2015,08,29,09,15,11.30
2015,08,29,09,16,16.10
2015,08,29,09,17,17.70
2015,08,29,09,18,1.60
2015,08,29,09,19,16.10
2015,08,29,09,20,16.10
2015,08,29,09,21,14.50
2015,08,29,09,22,8.10
2015,08,29,09,23,9.60
2015,08,29,09,24,17.70
2015,08,29,09,25,8.10
2015,08,29,09,26,9.60
2015,08,29,09,27,17.70
2015,08,29,09,28,9.60
2015,08,29,09,29,14.50
2015,08,29,09,30,9.60
2015,08,29,09,31,12.90
2015,08,29,09,32,8.10
2015,08,29,09,33,6.40
2015,08,29,09,34,4.80
2015,08,29,09,35,8.10
2015,08,29,09,36,14.50
2015,08,29,09,37,11.30
2015,08,29,09,38,24.20
2015,08,29,09,39,20.90
2015,08,29,09,40,8.10
2015,08,29,09,41,4.80
2015,08,29,09,42,11.30
2015,08,29,09,43,16.10
2015,08,29,09,44,24.20
2015,08,29,09,45,14.50
2015,08,29,09,46,16.10
2015,08,29,09,47,24.20
2015,08,29,09,48,24.20
2015,08,29,09,49,20.90
2015,08,29,09,50,14.50
2015,08,29,09,51,16.10
2015,08,29,09,52,20.90
2015,08,29,09,53,24.20
2015,08,29,09,54,17.70
2015,08,29,09,55,22.50
2015,08,29,09,56,22.50
2015,08,29,09,57,29.00
2015,08,29,09,58,29.00
2015,08,29,09,59,25.70
2015,08,29,10,00,27.40
2015,08,29,10,01,33.80
2015,08,29,10,02,29.00
2015,08,29,10,03,22.50
2015,08,29,10,04,32.20
2015,08,29,10,05,25.70
2015,08,29,10,06,37.00
2015,08,29,10,07,33.80
2015,08,29,10,08,27.40
2015,08,29,10,09,20.90
2015,08,29,10,10,33.80
2015,08,29,10,11,24.20
2015,08,29,10,12,25.70
2015,08,29,10,13,29.00
2015,08,29,10,14,37.00
2015,08,29,10,15,29.00
2015,08,29,10,16,25.70
2015,08,29,10,17,25.70
2015,08,29,10,18,33.80
2015,08,29,10,19,30.60
2015,08,29,10,20,33.80
2015,08,29,10,21,41.80
2015,08,29,10,22,30.60
2015,08,29,10,23,32.20
2015,08,29,10,24,29.00
2015,08,29,10,25,20.90
2015,08,29,10,26,30.60
2015,08,29,10,27,22.50
2015,08,29,10,28,38.60
2015,08,29,10,29,27.40
2015,08,29,10,30,38.60
2015,08,29,10,31,24.20
2015,08,29,10,32,19.30
2015,08,29,10,33,38.60
2015,08,29,10,34,25.70
2015,08,29,10,35,37.00
2015,08,29,10,36,41.80
2015,08,29,10,37,30.60
2015,08,29,10,38,43.50
2015,08,29,10,39,38.60
2015,08,29,10,40,33.80
2015,08,29,10,41,46.70
2015,08,29,10,42,53.10
2015,08,29,10,43,37.00
2015,08,29,10,44,48.30
2015,08,29,10,45,49.90
2015,08,29,10,46,30.60
2015,08,29,10,47,41.80
2015,08,29,10,48,35.40
2015,08,29,10,49,30.60
2015,08,29,10,50,37.00
2015,08,29,10,51,45.10
2015,08,29,10,52,43.50
2015,08,29,10,53,29.00
2015,08,29,10,54,41.80
2015,08,29,10,55,30.60
2015,08,29,10,56,37.00
2015,08,29,10,57,48.30
2015,08,29,10,58,40.20
2015,08,29,10,59,41.80
2015,08,29,11,00,37.00
2015,08,29,11,01,43.50
2015,08,29,11,02,41.80
2015,08,29,11,03,32.20
2015,08,29,11,04,32.20
2015,08,29,11,05,33.80
2015,08,29,11,06,45.10
2015,08,29,11,07,32.20
2015,08,29,11,08,22.50
2015,08,29,11,09,43.50
2015,08,29,11,10,27.40
2015,08,29,11,11,27.40
2015,08,29,11,12,35.40
2015,08,29,11,13,46.70
2015,08,29,11,14,30.60
2015,08,29,11,15,29.00
2015,08,29,11,16,41.80
2015,08,29,11,17,32.20
2015,08,29,11,18,53.10
2015,08,29,11,19,38.60
2015,08,29,11,20,49.90
2015,08,29,11,21,33.80
2015,08,29,11,22,46.70
2015,08,29,11,23,20.90
2015,08,29,11,24,33.80
2015,08,29,11,25,35.40
2015,08,29,11,26,22.50
2015,08,29,11,27,37.00
2015,08,29,11,28,41.80
2015,08,29,11,29,41.80
2015,08,29,11,30,30.60
2015,08,29,11,31,41.80
2015,08,29,11,32,27.40
2015,08,29,11,33,41.80
2015,08,29,11,34,29.00
2015,08,29,11,35,27.40
2015,08,29,11,36,33.80
2015,08,29,11,37,19.30
2015,08,29,11,38,27.40
2015,08,29,11,39,30.60
2015,08,29,11,40,16.10
2015,08,29,11,41,30.60
2015,08,29,11,42,22.50
2015,08,29,11,43,22.50
2015,08,29,11,44,37.00
2015,08,29,11,45,35.40
2015,08,29,11,46,25.70
2015,08,29,11,47,14.50
2015,08,29,11,48,25.70
2015,08,29,11,49,27.40
2015,08,29,11,50,33.80
2015,08,29,11,51,22.50
2015,08,29,11,52,22.50
2015,08,29,11,53,19.30
2015,08,29,11,54,20.90
2015,08,29,11,55,19.30
2015,08,29,11,56,25.70
2015,08,29,11,57,14.50
2015,08,29,11,58,8.10
2015,08,29,11,59,22.50
2015,08,29,12,00,16.10
2015,08,29,12,01,20.90
2015,08,29,12,02,17.70
2015,08,29,12,03,22.50
2015,08,29,12,04,19.30
2015,08,29,12,05,14.50
2015,08,29,12,06,16.10
2015,08,29,12,07,9.60
2015,08,29,12,08,16.10
2015,08,29,12,09,16.10
2015,08,29,12,10,11.30
2015,08,29,12,11,8.10
2015,08,29,12,12,9.60
2015,08,29,12,13,6.40
2015,08,29,12,14,3.20
2015,08,29,12,16,4.80
2015,08,29,12,17,8.10
2015,08,29,12,20,4.80
2015,08,29,12,22,3.20
2015,08,29,12,23,6.40
2015,08,29,12,24,11.30
2015,08,29,12,25,6.40
2015,08,29,12,26,6.40
2015,08,29,12,27,8.10
2015,08,29,12,28,11.30
2015,08,29,12,29,11.30
2015,08,29,12,30,4.80
2015,08,29,12,31,4.80
2015,08,29,12,32,6.40
2015,08,29,12,33,11.30
2015,08,29,12,34,6.40
2015,08,29,12,35,4.80
2015,08,29,12,38,9.60
2015,08,29,12,39,9.60
2015,08,29,12,40,9.60
2015,08,29,12,41,11.30
2015,08,29,12,42,12.90
2015,08,29,12,43,16.10
2015,08,29,12,44,6.40
2015,08,29,12,45,1.60
2015,08,29,12,46,4.80
2015,08,29,12,47,9.60
2015,08,29,12,48,4.80
2015,08,29,12,50,3.20
2015,08,29,12,51,4.80
2015,08,29,12,53,9.60
2015,08,29,12,54,14.50
2015,08,29,12,55,4.80
2015,08,29,13,08,4.80
2015,08,29,13,09,8.10
2015,08,29,13,10,11.30
2015,08,29,13,11,17.70
2015,08,29,13,12,3.20
2015,08,29,13,13,8.10
2015,08,29,13,14,11.30
2015,08,29,13,15,9.60
2015,08,29,13,16,17.70
2015,08,29,13,17,17.70
2015,08,29,13,18,11.30
2015,08,29,13,19,8.10
2015,08,29,13,20,8.10
2015,08,29,13,21,9.60
2015,08,29,13,22,4.80
2015,08,29,13,23,12.90
2015,08,29,13,24,12.90
2015,08,29,13,25,6.40
2015,08,29,13,26,4.80
2015,08,29,13,27,4.80
2015,08,29,13,28,6.40
2015,08,29,13,29,8.10
2015,08,29,13,30,6.40
2015,08,29,13,31,8.10
2015,08,29,13,32,14.50
2015,08,29,13,33,8.10
2015,08,29,13,34,8.10
2015,08,29,13,35,3.20
2015,08,29,13,36,6.40
2015,08,29,13,37,6.40
2015,08,29,13,38,8.10
2015,08,29,13,39,9.60
2015,08,29,13,40,3.20
2015,08,29,13,41,14.50
2015,08,29,13,42,12.90
2015,08,29,13,43,11.30
2015,08,29,13,44,12.90
2015,08,29,13,45,14.50
2015,08,29,13,46,24.20
2015,08,29,13,47,19.30
2015,08,29,13,48,12.90
2015,08,29,13,49,14.50
2015,08,29,13,50,17.70
2015,08,29,13,51,27.40
2015,08,29,13,52,17.70
2015,08,29,13,53,17.70
2015,08,29,13,54,17.70
2015,08,29,13,55,11.30
2015,08,29,13,56,33.80
2015,08,29,13,57,32.20
2015,08,29,13,58,29.00
2015,08,29,13,59,35.40
2015,08,29,14,00,33.80
2015,08,29,14,01,35.40
2015,08,29,14,02,43.50
2015,08,29,14,03,35.40
2015,08,29,14,04,29.00
2015,08,29,14,05,33.80
2015,08,29,14,06,43.50
2015,08,29,14,07,49.90
2015,08,29,14,08,49.90
2015,08,29,14,09,49.90
2015,08,29,14,10,61.20
2015,08,29,14,11,51.50
2015,08,29,14,12,64.40
2015,08,29,14,13,45.10
2015,08,29,14,14,53.10
2015,08,29,14,15,61.20
2015,08,29,14,16,54.70
2015,08,29,14,17,59.50
2015,08,29,14,18,40.20
2015,08,29,14,19,30.60
2015,08,29,14,20,49.90
2015,08,29,14,21,30.60
2015,08,29,14,22,57.90
2015,08,29,14,23,53.10
2015,08,29,14,24,54.70
2015,08,29,14,25,49.90
2015,08,29,14,26,54.70
2015,08,29,14,27,45.10
2015,08,29,14,28,48.30
2015,08,29,14,29,46.70
2015,08,29,14,30,35.40
2015,08,29,14,31,40.20
2015,08,29,14,32,37.00
2015,08,29,14,33,48.30
2015,08,29,14,34,40.20
2015,08,29,14,35,41.80
2015,08,29,14,36,37.00
2015,08,29,14,37,43.50
2015,08,29,14,38,35.40
2015,08,29,14,39,35.40
2015,08,29,14,40,29.00
2015,08,29,14,41,45.10
2015,08,29,14,42,37.00
2015,08,29,14,43,41.80
2015,08,29,14,44,49.90
2015,08,29,14,45,46.70
2015,08,29,14,46,43.50
2015,08,29,14,47,40.20
2015,08,29,14,48,33.80
2015,08,29,14,49,33.80
2015,08,29,14,50,27.40
2015,08,29,14,51,29.00
2015,08,29,14,52,33.80
2015,08,29,14,53,40.20
2015,08,29,14,54,29.00
2015,08,29,14,55,30.60
2015,08,29,14,56,22.50
2015,08,29,14,57,22.50
2015,08,29,14,58,27.40
2015,08,29,14,59,41.80
2015,08,29,15,00,32.20
2015,08,29,15,01,19.30
2015,08,29,15,02,38.60
2015,08,29,15,03,32.20
2015,08,29,15,04,19.30
2015,08,29,15,05,12.90
2015,08,29,15,06,9.60
2015,08,29,15,07,8.10
2015,08,29,15,08,16.10
2015,08,29,15,09,20.90
2015,08,29,15,10,20.90
2015,08,29,15,11,19.30
2015,08,29,15,12,8.10
2015,08,29,15,13,24.20
2015,08,29,15,14,20.90
2015,08,29,15,15,25.70
2015,08,29,15,16,32.20
2015,08,29,15,17,24.20
2015,08,29,15,18,22.50
2015,08,29,15,19,19.30
2015,08,29,15,20,19.30
2015,08,29,15,21,9.60
2015,08,29,15,22,22.50
2015,08,29,15,23,20.90
2015,08,29,15,24,16.10
2015,08,29,15,25,11.30
2015,08,29,15,26,22.50
2015,08,29,15,27,25.70
2015,08,29,15,28,27.40
2015,08,29,15,29,33.80
2015,08,29,15,30,12.90
2015,08,29,15,31,12.90
2015,08,29,15,32,22.50
2015,08,29,15,33,17.70
2015,08,29,15,34,22.50
2015,08,29,15,35,40.20
2015,08,29,15,36,32.20
2015,08,29,15,37,20.90
2015,08,29,15,38,29.00
2015,08,29,15,39,24.20
2015,08,29,15,40,35.40
2015,08,29,15,41,25.70
2015,08,29,15,42,6.40
2015,08,29,15,43,14.50
2015,08,29,15,44,20.90
2015,08,29,15,45,11.30
2015,08,29,15,46,14.50
2015,08,29,15,47,14.50
2015,08,29,15,48,17.70
2015,08,29,15,49,20.90
2015,08,29,15,50,20.90
2015,08,29,15,51,20.90
2015,08,29,15,52,9.60
2015,08,29,15,53,12.90
2015,08,29,15,54,17.70
2015,08,29,15,55,19.30
2015,08,29,15,56,11.30
2015,08,29,15,57,11.30
2015,08,29,15,58,8.10
2015,08,29,15,59,8.10
2015,08,29,16,00,8.10
2015,08,29,16,01,4.80
2015,08,29,16,02,16.10
2015,08,29,16,03,11.30
2015,08,29,16,04,1.60
2015,08,29,16,05,4.80
2015,08,29,16,06,6.40
2015,08,29,16,07,8.10
2015,08,29,16,08,3.20
2015,08,29,16,11,6.40
2015,08,29,16,12,1.60
2015,08,29,16,15,3.20
2015,08,29,16,16,6.40
2015,08,29,16,17,6.40
2015,08,29,16,19,6.40
2015,08,29,16,53,4.80
2015,08,29,16,54,6.40
2015,08,29,16,55,8.10
2015,08,29,16,56,1.60
2015,08,29,17,50,4.80
2015,08,29,17,51,6.40
2015,08,29,17,52,8.10
2015,08,29,17,53,9.60
2015,08,29,17,55,4.80
2015,08,29,17,56,11.30
2015,08,29,17,57,11.30
2015,08,29,17,58,11.30
2015,08,29,17,59,9.60
2015,08,29,18,00,3.20
2015,08,29,18,06,9.60
2015,08,29,18,07,17.70
2015,08,29,18,08,11.30
2015,08,29,18,09,19.30
2015,08,29,18,10,17.70
2015,08,29,18,11,20.90
2015,08,29,18,12,14.50
2015,08,29,18,13,6.40
2015,08,29,18,14,12.90
2015,08,29,18,15,8.10
2015,08,29,18,16,11.30
2015,08,29,18,17,9.60
2015,08,29,18,18,9.60
2015,08,29,18,19,14.50
2015,08,29,18,20,14.50
2015,08,29,18,21,9.60
2015,08,29,18,22,11.30
2015,08,29,18,23,11.30
2015,08,29,18,24,17.70
2015,08,29,18,25,6.40
2015,08,29,18,26,22.50
2015,08,29,18,27,11.30
2015,08,29,18,28,19.30
2015,08,29,18,29,16.10
2015,08,29,18,30,9.60
2015,08,29,18,31,4.80
2015,08,29,18,32,1.60
2015,08,29,18,40,8.10
2015,08,29,18,41,11.30
2015,08,29,18,58,8.10
2015,08,29,19,22,4.80
2015,08,29,19,24,8.10
2015,08,29,19,29,11.30
2015,08,29,19,32,6.40
2015,08,29,19,44,8.10
2015,08,29,19,45,6.40
2015,08,29,20,19,6.40
2015,08,29,20,20,8.10
2015,08,29,20,26,1.60
2015,08,29,20,28,8.10
2015,08,29,20,29,6.40
2015,08,29,20,32,12.90
2015,08,29,20,35,6.40
2015,08,29,20,36,9.60
2015,08,29,20,37,12.90
2015,08,29,20,38,6.40
2015,08,29,20,47,11.30
2015,08,29,20,48,8.10
2015,08,29,20,51,1.60
2015,08,29,20,55,4.80
2015,08,29,20,56,9.60
2015,08,29,20,57,9.60
2015,08,29,21,08,14.50
2015,08,29,21,09,11.30
2015,08,29,21,10,6.40
2015,08,29,21,12,6.40
2015,08,29,21,13,11.30
2015,08,29,21,14,14.50
2015,08,29,21,15,8.10
2015,08,29,21,16,4.80
2015,08,29,21,17,6.40
2015,08,29,21,19,12.90
2015,08,29,21,20,8.10
2015,08,29,21,21,8.10
2015,08,29,21,22,9.60
2015,08,29,21,23,11.30
2015,08,29,21,24,14.50
2015,08,29,21,25,16.10
